timestamp,wind_dir_avg,wind_spd_max_dir,wind_spd_avg,wind_spd_gust,battery_voltage,lat,long
2018-04-05 00:00:00+00:00,163.0,164.0,8.05,8.89,,47.59359,-54.27349
2018-04-05 00:10:00+00:00,149.0,149.0,6.17,7.09,,47.59359,-54.27349
2018-04-05 00:20:00+00:00,152.0,143.0,6.8,7.72,,47.59359,-54.27349
2018-04-05 00:30:00+00:00,162.0,160.0,4.22,5.23,,47.59359,-54.27349
2018-04-05 00:40:00+00:00,150.0,148.0,5.13,5.78,,47.59359,-54.27349
2018-04-05 00:50:00+00:00,142.0,128.0,6.27,7.77,,47.59359,-54.27349
2018-04-05 01:00:00+00:00,149.0,144.0,7.65,10.09,,47.59359,-54.27349
2018-04-05 01:10:00+00:00,150.0,145.0,7.38,8.56,,47.59359,-54.27349
2018-04-05 01:20:00+00:00,147.0,168.0,6.43,10.53,,47.59359,-54.27349
2018-04-05 01:30:00+00:00,142.0,138.0,6.07,7.38,,47.59359,-54.27349
2018-04-05 01:40:00+00:00,152.0,142.0,6.18,8.31,,47.59359,-54.27349
2018-04-05 01:50:00+00:00,162.0,166.0,11.47,14.88,,47.59359,-54.27349
2018-04-05 02:00:00+00:00,155.0,162.0,10.35,13.91,,47.59359,-54.27349
2018-04-05 02:10:00+00:00,156.0,157.0,8.99,10.53,,47.59359,-54.27349
2018-04-05 02:20:00+00:00,148.0,154.0,7.12,8.59,,47.59359,-54.27349
2018-04-05 02:30:00+00:00,152.0,161.0,8.94,10.66,,47.59359,-54.27349
2018-04-05 02:40:00+00:00,146.0,149.0,6.58,7.93,,47.59359,-54.27349
2018-04-05 02:50:00+00:00,142.0,138.0,6.39,7.38,,47.59359,-54.27349
2018-04-05 03:00:00+00:00,132.0,120.0,7.03,9.48,,47.59359,-54.27349
2018-04-05 03:10:00+00:00,142.0,140.0,6.26,7.26,,47.59359,-54.27349
2018-04-05 03:20:00+00:00,138.0,140.0,5.72,6.4,,47.59359,-54.27349
2018-04-05 03:30:00+00:00,141.0,140.0,4.6,5.13,,47.59359,-54.27349
2018-04-05 03:40:00+00:00,150.0,147.0,5.94,6.82,,47.59359,-54.27349
2018-04-05 03:50:00+00:00,150.0,160.0,7.26,8.11,,47.59359,-54.27349
2018-04-05 04:00:00+00:00,139.0,137.0,5.75,6.89,,47.59359,-54.27349
2018-04-05 04:10:00+00:00,154.0,163.0,7.02,8.44,,47.59359,-54.27349
2018-04-05 04:20:00+00:00,152.0,158.0,4.42,4.97,,47.59359,-54.27349
2018-04-05 04:30:00+00:00,140.0,134.0,5.77,6.79,,47.59359,-54.27349
2018-04-05 04:40:00+00:00,135.0,141.0,4.17,5.49,,47.59359,-54.27349
2018-04-05 04:50:00+00:00,161.0,162.0,8.0,9.97,,47.59359,-54.27349
2018-04-05 05:00:00+00:00,159.0,161.0,6.85,7.88,,47.59359,-54.27349
2018-04-05 05:10:00+00:00,151.0,153.0,8.32,9.59,,47.59359,-54.27349
2018-04-05 05:20:00+00:00,156.0,165.0,8.96,10.32,,47.59359,-54.27349
2018-04-05 05:30:00+00:00,159.0,168.0,7.59,8.82,,47.59359,-54.27349
2018-04-05 05:40:00+00:00,160.0,156.0,8.76,9.72,,47.59359,-54.27349
2018-04-05 05:50:00+00:00,159.0,160.0,8.1,9.96,,47.59359,-54.27349
2018-04-05 06:00:00+00:00,151.0,156.0,6.84,8.15,,47.59359,-54.27349
2018-04-05 06:10:00+00:00,150.0,146.0,6.84,9.53,,47.59359,-54.27349
2018-04-05 06:20:00+00:00,154.0,155.0,4.61,5.35,,47.59359,-54.27349
2018-04-05 06:30:00+00:00,155.0,159.0,5.04,5.54,,47.59359,-54.27349
2018-04-05 06:40:00+00:00,162.0,168.0,4.58,5.33,,47.59359,-54.27349
2018-04-05 07:10:00+00:00,135.0,142.0,2.75,3.28,,47.59359,-54.27349
2018-04-05 07:20:00+00:00,160.0,168.0,4.08,4.61,,47.59359,-54.27349
2018-04-05 08:00:00+00:00,149.0,140.0,4.55,5.12,,47.59359,-54.27349
2018-04-05 08:10:00+00:00,165.0,172.0,1.87,2.48,,47.59359,-54.27349
2018-04-05 08:20:00+00:00,163.0,154.0,2.25,3.98,,47.59359,-54.27349
2018-04-05 08:30:00+00:00,185.0,184.0,2.71,3.12,,47.59359,-54.27349
2018-04-05 08:50:00+00:00,170.0,171.0,5.36,5.37,,47.59359,-54.27349
2018-04-05 09:00:00+00:00,174.0,177.0,7.18,7.78,,47.59359,-54.27349
2018-04-05 09:20:00+00:00,189.0,189.0,8.07,8.75,,47.59359,-54.27349
2018-04-05 09:30:00+00:00,188.0,188.0,7.28,8.13,,47.59359,-54.27349
2018-04-05 09:40:00+00:00,190.0,188.0,7.46,8.32,,47.59359,-54.27349
2018-04-05 09:50:00+00:00,194.0,192.0,6.83,7.36,,47.59359,-54.27349
2018-04-05 10:00:00+00:00,219.0,223.0,6.92,7.36,,47.59359,-54.27349
2018-04-05 10:10:00+00:00,219.0,218.0,6.74,7.3,,47.59359,-54.27349
2018-04-05 10:20:00+00:00,223.0,223.0,7.69,8.42,,47.59359,-54.27349
2018-04-05 10:30:00+00:00,225.0,228.0,7.08,8.47,,47.59359,-54.27349
2018-04-05 10:40:00+00:00,222.0,219.0,7.41,8.76,,47.59359,-54.27349
2018-04-05 10:50:00+00:00,219.0,220.0,6.5,7.03,,47.59359,-54.27349
2018-04-05 11:00:00+00:00,213.0,214.0,6.67,7.71,,47.59359,-54.27349
2018-04-05 11:10:00+00:00,219.0,221.0,7.01,7.5,,47.59359,-54.27349
2018-04-05 11:20:00+00:00,216.0,218.0,7.15,7.75,,47.59359,-54.27349
2018-04-05 11:30:00+00:00,221.0,225.0,7.58,9.05,,47.59359,-54.27349
2018-04-05 11:40:00+00:00,219.0,227.0,9.17,11.18,,47.59359,-54.27349
2018-04-05 11:50:00+00:00,228.0,226.0,9.73,11.25,,47.59359,-54.27349
2018-04-05 12:00:00+00:00,235.0,235.0,8.99,10.4,,47.59359,-54.27349
2018-04-05 12:10:00+00:00,230.0,232.0,8.61,9.96,,47.59359,-54.27349
2018-04-05 12:20:00+00:00,232.0,238.0,8.63,9.63,,47.59359,-54.27349
2018-04-05 12:30:00+00:00,236.0,241.0,10.98,13.33,,47.59359,-54.27349
2018-04-05 12:40:00+00:00,236.0,234.0,11.56,14.29,,47.59359,-54.27349
2018-04-05 12:50:00+00:00,238.0,241.0,12.56,14.54,,47.59359,-54.27349
2018-04-05 13:00:00+00:00,237.0,237.0,10.94,12.48,,47.59359,-54.27349
2018-04-05 13:10:00+00:00,241.0,247.0,13.66,16.76,,47.59359,-54.27349
2018-04-05 13:20:00+00:00,229.0,232.0,12.8,14.58,,47.59359,-54.27349
2018-04-05 13:30:00+00:00,230.0,229.0,13.55,15.87,,47.59359,-54.27349
2018-04-05 13:40:00+00:00,229.0,234.0,13.35,15.05,,47.59359,-54.27349
2018-04-05 13:50:00+00:00,228.0,230.0,13.83,15.67,,47.59359,-54.27349
2018-04-05 14:00:00+00:00,228.0,230.0,14.5,16.18,,47.59359,-54.27349
2018-04-05 14:10:00+00:00,226.0,223.0,13.9,15.83,,47.59359,-54.27349
2018-04-05 14:20:00+00:00,225.0,225.0,13.07,15.45,,47.59359,-54.27349
2018-04-05 14:30:00+00:00,229.0,232.0,14.46,16.12,,47.59359,-54.27349
2018-04-05 14:40:00+00:00,227.0,226.0,14.68,16.96,,47.59359,-54.27349
2018-04-05 14:50:00+00:00,225.0,221.0,15.2,17.75,,47.59359,-54.27349
2018-04-05 15:00:00+00:00,226.0,229.0,14.07,16.81,,47.59359,-54.27349
2018-04-05 15:10:00+00:00,224.0,231.0,13.69,16.24,,47.59359,-54.27349
2018-04-05 15:20:00+00:00,223.0,226.0,12.79,14.4,,47.59359,-54.27349
2018-04-05 15:30:00+00:00,223.0,226.0,12.67,15.24,,47.59359,-54.27349
2018-04-05 15:40:00+00:00,220.0,219.0,11.33,12.76,,47.59359,-54.27349
2018-04-05 15:50:00+00:00,221.0,222.0,11.91,13.69,,47.59359,-54.27349
2018-04-05 16:00:00+00:00,223.0,221.0,12.71,14.87,,47.59359,-54.27349
2018-04-05 16:10:00+00:00,228.0,226.0,14.27,16.03,,47.59359,-54.27349
2018-04-05 16:20:00+00:00,232.0,232.0,12.42,13.98,,47.59359,-54.27349
2018-04-05 16:30:00+00:00,220.0,216.0,11.03,12.02,,47.59359,-54.27349
2018-04-05 16:40:00+00:00,225.0,218.0,11.87,13.24,,47.59359,-54.27349
2018-04-05 16:50:00+00:00,220.0,223.0,10.63,12.61,,47.59359,-54.27349
2018-04-05 17:00:00+00:00,236.0,239.0,11.88,13.57,,47.59359,-54.27349
2018-04-05 17:10:00+00:00,232.0,236.0,10.88,11.94,,47.59359,-54.27349
2018-04-05 17:20:00+00:00,229.0,229.0,9.45,10.51,,47.59359,-54.27349
2018-04-05 17:30:00+00:00,232.0,231.0,11.14,12.27,,47.59359,-54.27349
2018-04-05 17:40:00+00:00,231.0,234.0,10.31,12.36,,47.59359,-54.27349
2018-04-05 17:50:00+00:00,230.0,232.0,10.03,11.94,,47.59359,-54.27349
2018-04-05 18:00:00+00:00,228.0,223.0,11.08,12.62,,47.59359,-54.27349
2018-04-05 18:10:00+00:00,228.0,231.0,10.52,11.92,,47.59359,-54.27349
2018-04-05 18:20:00+00:00,225.0,226.0,10.81,12.27,,47.59359,-54.27349
2018-04-05 18:30:00+00:00,223.0,222.0,10.79,12.4,,47.59359,-54.27349
2018-04-05 18:40:00+00:00,225.0,226.0,10.95,12.54,,47.59359,-54.27349
2018-04-05 18:50:00+00:00,225.0,225.0,10.59,11.56,,47.59359,-54.27349
2018-04-05 19:00:00+00:00,218.0,211.0,9.9,12.36,,47.59359,-54.27349
2018-04-05 19:10:00+00:00,222.0,219.0,11.16,12.64,,47.59359,-54.27349
2018-04-05 19:20:00+00:00,221.0,219.0,11.32,12.78,,47.59359,-54.27349
2018-04-05 19:30:00+00:00,224.0,227.0,11.1,12.28,,47.59359,-54.27349
2018-04-05 19:40:00+00:00,223.0,221.0,10.67,12.28,,47.59359,-54.27349
2018-04-05 19:50:00+00:00,224.0,224.0,10.99,12.34,,47.59359,-54.27349
2018-04-05 20:00:00+00:00,227.0,225.0,10.56,11.77,,47.59359,-54.27349
2018-04-05 20:10:00+00:00,232.0,231.0,10.38,11.33,,47.59359,-54.27349
2018-04-05 20:20:00+00:00,234.0,237.0,7.97,9.3,,47.59359,-54.27349
2018-04-05 20:30:00+00:00,231.0,234.0,7.47,8.28,,47.59359,-54.27349
2018-04-05 20:40:00+00:00,251.0,250.0,8.14,9.44,,47.59359,-54.27349
2018-04-05 20:50:00+00:00,246.0,251.0,8.13,9.54,,47.59359,-54.27349
2018-04-05 21:00:00+00:00,231.0,231.0,7.34,8.4,,47.59359,-54.27349
2018-04-05 21:10:00+00:00,233.0,235.0,7.64,8.95,,47.59359,-54.27349
2018-04-05 21:20:00+00:00,232.0,236.0,7.83,8.9,,47.59359,-54.27349
2018-04-05 21:30:00+00:00,236.0,240.0,8.29,9.59,,47.59359,-54.27349
2018-04-05 21:40:00+00:00,235.0,235.0,8.01,9.23,,47.59359,-54.27349
2018-04-05 21:50:00+00:00,231.0,232.0,9.65,10.74,,47.59359,-54.27349
2018-04-05 22:00:00+00:00,229.0,233.0,9.74,10.99,,47.59359,-54.27349
2018-04-05 22:10:00+00:00,230.0,230.0,9.58,10.63,,47.59359,-54.27349
2018-04-05 22:20:00+00:00,231.0,231.0,8.37,9.47,,47.59359,-54.27349
2018-04-05 22:30:00+00:00,231.0,231.0,8.83,9.64,,47.59359,-54.27349
2018-04-05 22:40:00+00:00,237.0,241.0,9.38,11.32,,47.59359,-54.27349
2018-04-05 22:50:00+00:00,246.0,247.0,8.86,10.6,,47.59359,-54.27349
2018-04-05 23:00:00+00:00,245.0,252.0,8.92,10.22,,47.59359,-54.27349
2018-04-05 23:10:00+00:00,243.0,245.0,9.98,11.48,,47.59359,-54.27349
2018-04-05 23:20:00+00:00,249.0,249.0,7.81,9.29,,47.59359,-54.27349
2018-04-05 23:30:00+00:00,253.0,253.0,9.24,10.32,,47.59359,-54.27349
2018-04-05 23:40:00+00:00,252.0,254.0,9.05,10.34,,47.59359,-54.27349
2018-04-05 23:50:00+00:00,252.0,251.0,8.39,9.3,,47.59359,-54.27349
